Weather History for Shawano, WI

Change the Weather History Date:

Tuesday, January 24, 2012

  Actual Average (KGRB) Record (KGRB)
Temperature  
Mean Temperature 26 °F 16 °F  
Max Temperature 30 °F 24 °F 47 °F (1916)
Min Temperature 19 °F 9 °F -25 °F (1935)
Degree Days  
Heating Degree Days 39 49  
Month to date heating degree days 1166  
Since 1 July heating degree days 4256  
Cooling Degree Days 0 0  
Month to date cooling degree days 0  
Year to date cooling degree days 0  
Moisture  
Dew Point 19 °F    
Average Humidity 72    
Maximum Humidity 85    
Minimum Humidity 63    
Precipitation  
Precipitation 0.00 in 0.04 in 1.20 in (1938)
Month to date precipitation 0.90  
Year to date precipitation 0.90  
Snow  
Snow 0.00 in 0.40 in 5.30 in (1893)
Month to date snowfall 10.0  
Since 1 July snowfall 27.3  
Snow Depth -    
Sea Level Pressure  
Sea Level Pressure 30.08 in    
Wind  
Wind Speed 9 mph (West)    
Max Wind Speed 14 mph    
Max Gust Speed 25 mph    
Visibility 10 miles    
Events      
T = Trace of Precipitation, MM = Missing Value Source: NWS Daily Summary

Daily Weather History Graph

Daily Weather History Graph

Search for Another Location

Airport:

Trip Planner

Search our weather history database for the weather conditions in past years. The results will help you decide how hot, cold, wet, or windy it might be!

Date:

Astronomy

Jan. 24, 2012 Rise Set
Actual Time 7:22 AM CST 4:50 PM CST
Civil Twilight 6:50 AM CST 5:22 PM CST
Nautical Twilight 6:14 AM CST 5:58 PM CST
Astronomical Twilight 5:40 AM CST 6:33 PM CST
Moon 7:45 AM CST (1/24) 6:49 PM CST (1/24)
Length of Visible Light 10h 32m
Length of Day
9h 28m
New Moon, 2% of the Moon is Illuminated
Jan 24
New Moon
Jan 30
First Quarter
Feb 7
Full
Feb 14
Last Quarter
Feb 21
New

Hourly Weather History & Observations

Time (CST) Temp. Windchill Dew Point Humidity Pressure Visibility Wind Dir Wind Speed Gust Speed Precip Events Conditions
12:15 AM 28.9 °F 20.4 °F 21.7 °F 74% 29.74 in 10.0 mi West 9.2 mph 20.7 mph N/A   Overcast
12:35 AM 28.8 °F 19.0 °F 21.4 °F 74% 29.75 in 10.0 mi West 11.5 mph 23.0 mph N/A   Overcast
12:55 AM 28.8 °F 20.2 °F 21.9 °F 76% 29.76 in 10.0 mi West 9.2 mph 17.3 mph N/A   Overcast
1:15 AM 28.8 °F 19.0 °F 22.1 °F 76% 29.77 in 10.0 mi West 11.5 mph 17.3 mph N/A   Overcast
1:35 AM 28.8 °F 18.4 °F 22.1 °F 76% 29.78 in 10.0 mi West 12.7 mph 16.1 mph N/A   Overcast
1:55 AM 28.8 °F 17.9 °F 21.9 °F 76% 29.79 in 10.0 mi West 13.8 mph 25.3 mph N/A   Overcast
2:15 AM 28.8 °F 19.5 °F 21.9 °F 76% 29.81 in 10.0 mi West 10.4 mph 17.3 mph N/A   Overcast
3:15 AM 28.2 °F 19.5 °F 22.3 °F 78% 29.84 in 10.0 mi West 9.2 mph - N/A   Overcast
3:35 AM 28.0 °F 18.6 °F 22.3 °F 79% 29.85 in 10.0 mi West 10.4 mph 17.3 mph N/A   Overcast
3:55 AM 27.9 °F 19.1 °F 22.1 °F 79% 29.86 in 10.0 mi West 9.2 mph 19.6 mph N/A   Overcast
4:15 AM 27.5 °F 18.0 °F 21.7 °F 79% 29.87 in 10.0 mi West 10.4 mph - N/A   Overcast
4:35 AM 27.5 °F 19.3 °F 21.4 °F 78% 29.87 in 10.0 mi West 8.1 mph 17.3 mph N/A   Overcast
4:55 AM 27.3 °F 16.1 °F 21.2 °F 78% 29.89 in 10.0 mi West 13.8 mph 18.4 mph N/A   Overcast
5:15 AM 27.3 °F 19.9 °F 21.0 °F 77% 29.90 in 10.0 mi West 6.9 mph 16.1 mph N/A   Overcast
5:35 AM 27.3 °F 19.9 °F 20.8 °F 77% 29.92 in 10.0 mi West 6.9 mph - N/A   Overcast
5:55 AM 27.3 °F 17.7 °F 19.9 °F 74% 29.93 in 10.0 mi West 10.4 mph 17.3 mph N/A   Overcast
6:15 AM 27.1 °F 18.2 °F 19.9 °F 74% 29.95 in 10.0 mi West 9.2 mph 18.4 mph N/A   Overcast
6:35 AM 26.8 °F 19.3 °F 20.1 °F 76% 29.96 in 10.0 mi West 6.9 mph 16.1 mph N/A   Overcast
6:55 AM 26.6 °F 18.2 °F 20.1 °F 77% 29.97 in 10.0 mi West 8.1 mph - N/A   Overcast
7:15 AM 26.6 °F 16.2 °F 19.0 °F 73% 29.99 in 10.0 mi West 11.5 mph 17.3 mph N/A   Overcast
7:35 AM 26.2 °F 17.1 °F 18.0 °F 71% 30.00 in 10.0 mi West 9.2 mph - N/A   Overcast
7:55 AM 26.1 °F 16.8 °F 18.3 °F 73% 30.01 in 10.0 mi West 9.2 mph - N/A   Overcast
8:15 AM 26.1 °F 15.6 °F 18.0 °F 71% 30.03 in 10.0 mi West 11.5 mph 19.6 mph N/A   Overcast
8:35 AM 25.9 °F 16.6 °F 17.4 °F 70% 30.04 in 10.0 mi West 9.2 mph 20.7 mph N/A   Overcast
8:55 AM 25.7 °F 14.0 °F 17.1 °F 70% 30.06 in 10.0 mi West 13.8 mph 21.9 mph N/A   Overcast
9:55 AM 26.4 °F 16.0 °F 17.2 °F 68% 30.10 in 10.0 mi West 11.5 mph 17.3 mph N/A   Overcast
10:15 AM 26.6 °F 17.5 °F 17.2 °F 68% 30.11 in 10.0 mi West 9.2 mph 21.9 mph N/A   Overcast
10:35 AM 26.8 °F 16.5 °F 17.6 °F 68% 30.12 in 10.0 mi West 11.5 mph 18.4 mph N/A   Overcast
10:55 AM 27.3 °F 16.1 °F 17.6 °F 67% 30.13 in 10.0 mi WNW 13.8 mph 20.7 mph N/A   Overcast
11:15 AM 27.7 °F 18.2 °F 17.6 °F 66% 30.13 in 10.0 mi West 10.4 mph 20.7 mph N/A   Overcast
11:35 AM 28.0 °F 18.6 °F 17.6 °F 65% 30.13 in 10.0 mi West 10.4 mph 18.4 mph N/A   Overcast
11:55 AM 28.2 °F 18.3 °F 17.6 °F 64% 30.13 in 10.0 mi West 11.5 mph 17.3 mph N/A   Scattered Clouds
12:15 PM 28.2 °F 19.5 °F 17.8 °F 65% 30.14 in 10.0 mi WNW 9.2 mph - N/A   Scattered Clouds
12:35 PM 28.6 °F 17.7 °F 18.0 °F 64% 30.14 in 10.0 mi WNW 13.8 mph 17.3 mph N/A   Scattered Clouds
12:55 PM 28.6 °F 19.3 °F 17.8 °F 64% 30.15 in 10.0 mi NW 10.4 mph 16.1 mph N/A   Scattered Clouds
1:15 PM 28.8 °F 20.9 °F 18.1 °F 65% 30.15 in 10.0 mi WNW 8.1 mph 16.1 mph N/A   Scattered Clouds
1:35 PM 29.1 °F 21.3 °F 18.3 °F 64% 30.16 in 10.0 mi WNW 8.1 mph - N/A   Scattered Clouds
1:55 PM 29.5 °F 21.8 °F 18.5 °F 64% 30.16 in 10.0 mi NW 8.1 mph - N/A   Clear
2:15 PM 29.8 °F 22.2 °F 18.7 °F 63% 30.16 in 10.0 mi West 8.1 mph - N/A   Scattered Clouds
2:35 PM 30.0 °F 22.4 °F 18.9 °F 63% 30.17 in 10.0 mi West 8.1 mph - N/A   Clear
2:55 PM 30.0 °F 21.7 °F 18.7 °F 63% 30.18 in 10.0 mi West 9.2 mph - N/A   Clear
3:15 PM 29.8 °F 23.0 °F 18.7 °F 63% 30.19 in 10.0 mi West 6.9 mph - N/A   Clear
3:35 PM 30.2 °F 22.6 °F 19.0 °F 63% 30.21 in 10.0 mi West 8.1 mph - N/A   Clear
3:55 PM 30.2 °F 23.4 °F 19.0 °F 63% 30.21 in 10.0 mi West 6.9 mph - N/A   Clear
4:15 PM 29.8 °F 23.0 °F 19.2 °F 65% 30.22 in 10.0 mi West 6.9 mph - N/A   Clear
4:35 PM 29.3 °F 24.3 °F 19.0 °F 66% 30.23 in 10.0 mi West 4.6 mph - N/A   Clear
4:55 PM 28.8 °F 25.0 °F 19.0 °F 67% 30.24 in 10.0 mi West 3.5 mph - N/A   Clear
5:15 PM 28.0 °F 22.8 °F 18.7 °F 68% 30.25 in 10.0 mi West 4.6 mph - N/A   Clear
5:35 PM 27.5 °F 23.6 °F 18.5 °F 69% 30.26 in 10.0 mi West 3.5 mph - N/A   Clear
5:55 PM 27.3 °F 23.4 °F 18.7 °F 70% 30.27 in 10.0 mi WSW 3.5 mph - N/A   Clear
6:15 PM 26.4 °F - 18.7 °F 73% 30.28 in 10.0 mi Calm Calm - N/A   Clear
6:35 PM 25.9 °F 21.7 °F 18.5 °F 74% 30.29 in 10.0 mi WSW 3.5 mph - N/A   Clear
6:55 PM 25.7 °F - 18.5 °F 74% 30.28 in 10.0 mi Calm Calm - N/A   Clear
7:15 PM 24.6 °F 18.8 °F 18.7 °F 78% 30.28 in 10.0 mi WSW 4.6 mph - N/A   Clear
7:35 PM 24.1 °F 19.7 °F 18.7 °F 80% 30.28 in 10.0 mi WSW 3.5 mph - N/A   Clear
7:55 PM 23.5 °F 19.1 °F 18.5 °F 81% 30.29 in 10.0 mi West 3.5 mph - N/A   Clear
8:15 PM 23.4 °F - 18.0 °F 80% 30.28 in 10.0 mi Calm Calm - N/A   Clear
8:35 PM 23.2 °F 17.2 °F 17.8 °F 80% 30.28 in 10.0 mi West 4.6 mph - N/A   Clear
8:55 PM 22.5 °F - 17.6 °F 82% 30.29 in 10.0 mi Calm Calm - N/A   Clear
9:15 PM 19.8 °F - 15.8 °F 85% 30.29 in 10.0 mi Calm Calm - N/A   Clear
9:35 PM 17.8 °F - 15.1 °F 89% 30.29 in 10.0 mi Calm Calm - N/A   Clear
9:55 PM 18.7 °F - 16.3 °F 91% 30.30 in 10.0 mi Calm Calm - N/A   Clear
10:15 PM 18.1 °F - 15.8 °F 91% 30.30 in 10.0 mi Calm Calm - N/A   Clear
10:35 PM 17.4 °F - 15.1 °F 91% 30.29 in 10.0 mi Calm Calm - N/A   Clear
10:55 PM 17.2 °F - 14.9 °F 91% 30.28 in 10.0 mi Calm Calm - N/A   Clear
11:15 PM 17.2 °F - 14.9 °F 91% 30.28 in 10.0 mi Calm Calm - N/A   Clear
11:35 PM 18.0 °F - 15.6 °F 91% 30.29 in 10.0 mi Calm Calm - N/A   Clear
11:55 PM 17.6 °F - 15.3 °F 91% 30.29 in 7.0 mi Calm Calm - N/A   Clear